Powrót do katalogu

COSMOS 1818 COOLANT

LostLEO
NORAD 36940·DEBRIS·🇷🇺 Russia

Wystrzelony Feb 1, 1987 z Baikonur Cosmodrome

Loading…

Następne Przeloty (najbliższe 24 godziny)

TLE

NieaktualneSource: Space-Track

Epoka: Sep 3, 2022, 22:47 UTC

1 36940U 87011U   22246.94949399  .00000262  00000-0  12978-3 0  9991
2 36940  65.0140 137.1699 0012381 250.3065 109.6685 14.33888462682033

Śledź COSMOS 1818 COOLANT w czasie rzeczywistym z AllMySat

Download on the App Store